FW2576 Weather Reports


time (UTC)temp
F
wind
direction
speed
knots
gust
knots
rain 1hr
in
rain 24hr
in
rain mn
in
humidity
%
barometer
mb
20260505153056 53 299 5.2 10.4 0.00 0.00 0.00 55 1012.9
20260505152455 53 328 3.5 10.4 0.00 0.00 0.00 56 1013.2
20260505151855 53 323 4.3 13.0 0.00 0.00 0.00 56 1013.2
20260505151255 53 282 3.5 11.3 0.00 0.00 0.00 60 1013.1
20260505150655 52 293 4.3 9.6 0.00 0.00 0.00 61 1013.0
20260505124854 57 335 0.0 0.0 0.00 0.00 0.00 38 1012.0
20260505124254 57 251 0.0 0.0 0.00 0.00 0.00 39 1012.0
20260505123654 57 251 0.0 0.0 0.00 0.00 0.00 39 1012.1
20260505123054 57 243 0.0 0.0 0.00 0.00 0.00 38 1012.1
20260505122455 57 248 0.0 0.9 0.00 0.00 0.00 38 1012.0
20260505121854 57 238 0.0 1.7 0.00 0.00 0.00 38 1011.9
20260505121254 57 245 0.0 0.0 0.00 0.00 0.00 38 1012.0
20260505120654 57 237 0.0 0.0 0.00 0.00 0.00 38 1011.9
20260505120053 57 232 0.0 1.7 0.00 0.00 0.00 38 1011.9
20260505115453 57 237 0.0 2.6 0.00 0.00 0.00 38 1011.9
20260505114853 57 241 0.0 2.6 0.00 0.00 0.00 38 1011.9
20260505114254 57 250 0.0 0.0 0.00 0.00 0.00 37 1011.8
20260505113654 57 271 0.0 0.0 0.00 0.00 0.00 37 1011.7
20260505113054 57 284 0.0 0.0 0.00 0.00 0.00 37 1011.8
20260505112453 57 284 0.0 0.0 0.00 0.00 0.00 36 1011.6
20260505111854 58 284 0.0 0.0 0.00 0.00 0.00 36 1011.7
20260505111253 58 285 0.0 0.0 0.00 0.00 0.00 36 1011.6
20260505110654 58 283 0.0 0.0 0.00 0.00 0.00 35 1011.7
20260505101853 58 249 0.0 0.9 0.00 0.00 0.00 35 1011.9
20260505101253 58 249 0.0 0.9 0.00 0.00 0.00 35 1011.9
20260505100653 58 249 0.0 0.0 0.00 0.00 0.00 34 1011.8
20260505100053 58 247 0.0 0.9 0.00 0.00 0.00 34 1011.8
20260505095453 59 246 0.0 1.7 0.00 0.00 0.00 34 1011.8
20260505094853 59 261 0.0 0.9 0.00 0.00 0.00 34 1011.7
20260505094253 59 275 0.0 0.0 0.00 0.00 0.00 34 1011.7
20260505093653 59 319 0.0 0.0 0.00 0.00 0.00 33 1011.7
20260505093053 59 335 0.0 0.0 0.00 0.00 0.00 33 1011.7
20260505092453 59 351 0.0 0.0 0.00 0.00 0.00 34 1011.8
20260505091853 59 351 0.0 0.0 0.00 0.00 0.00 34 1011.9
20260505091254 59 351 0.0 0.0 0.00 0.00 0.00 34 1011.8
20260505090653 60 351 0.0 0.0 0.00 0.00 0.00 34 1011.8
20260505090053 60 351 0.0 0.0 0.00 0.00 0.00 33 1011.9
20260505085454 60 351 0.0 0.0 0.00 0.00 0.00 33 1012.0
20260505084853 60 351 0.0 0.0 0.00 0.00 0.00 33 1012.1
20260505084253 60 351 0.0 3.5 0.00 0.00 0.00 32 1012.1
20260505083653 60 354 0.9 3.5 0.00 0.00 0.00 32 1012.2
20260505083053 60 328 0.9 5.2 0.00 0.00 0.00 33 1012.2
20260505082453 60 282 0.0 6.1 0.00 0.00 0.00 32 1012.2
20260505081853 60 301 2.6 6.1 0.00 0.00 0.00 32 1012.3
20260505081254 61 261 0.9 6.1 0.00 0.00 0.00 33 1012.3
20260505080652 61 265 1.7 6.1 0.00 0.00 0.00 32 1012.5
20260505080053 61 275 1.7 5.2 0.00 0.00 0.00 32 1012.5
20260505075453 61 261 0.9 3.5 0.00 0.00 0.00 32 1012.6
20260505074853 61 259 1.7 4.3 0.00 0.00 0.00 31 1012.6
20260505074253 61 235 0.9 5.2 0.00 0.00 0.00 31 1012.5
20260505073653 62 258 2.6 6.1 0.00 0.00 0.00 31 1012.4
20260505073053 62 274 2.6 7.8 0.00 0.00 0.00 31 1012.5
20260505072453 62 271 1.7 7.0 0.00 0.00 0.00 30 1012.4
20260505071853 62 268 2.6 7.0 0.00 0.00 0.00 30 1012.3
20260505071253 63 253 3.5 9.6 0.00 0.00 0.00 29 1012.3
20260505070652 63 249 4.3 10.4 0.00 0.00 0.00 29 1012.3
20260505070053 63 249 3.5 8.7 0.00 0.00 0.00 28 1012.1
20260505065453 63 273 3.5 7.8 0.00 0.00 0.00 28 1011.9
20260505064852 63 236 3.5 8.7 0.00 0.00 0.00 28 1011.9
20260505064252 63 237 2.6 8.7 0.00 0.00 0.00 28 1012.0
20260505063652 63 228 5.2 11.3 0.00 0.00 0.00 28 1011.9
20260505063052 64 245 4.3 11.3 0.00 0.00 0.00 27 1011.8
20260505062452 64 251 4.3 8.7 0.00 0.00 0.00 27 1011.7
20260505061853 64 240 4.3 9.6 0.00 0.00 0.00 27 1011.8
20260505061253 64 240 3.5 10.4 0.00 0.00 0.00 27 1011.7
20260505060653 64 268 3.5 10.4 0.00 0.00 0.00 26 1011.6
20260505060053 64 266 3.5 10.4 0.00 0.00 0.00 26 1011.6
20260505055453 65 261 5.2 10.4 0.00 0.00 0.00 26 1011.4
20260505054853 65 243 4.3 11.3 0.00 0.00 0.00 25 1011.6
20260505054252 65 220 5.2 11.3 0.00 0.00 0.00 25 1011.6
20260505053653 65 250 6.1 9.6 0.00 0.00 0.00 25 1011.7
20260505053053 65 272 4.3 8.7 0.00 0.00 0.00 24 1011.7
20260505052452 65 266 4.3 7.8 0.00 0.00 0.00 24 1011.6
20260505051853 65 270 3.5 7.8 0.00 0.00 0.00 25 1011.5
20260505051252 66 276 0.9 7.0 0.00 0.00 0.00 25 1011.5
20260505050652 66 268 1.7 5.2 0.00 0.00 0.00 25 1011.4
20260505041252 67 262 0.0 4.3 0.00 0.00 0.00 25 1011.4
20260505040652 67 264 0.0 0.9 0.00 0.00 0.00 25 1011.2
20260505040052 67 264 0.0 0.9 0.00 0.00 0.00 25 1011.2
20260505035452 67 264 0.0 5.2 0.00 0.00 0.00 25 1011.2
20260505034852 67 259 0.9 5.2 0.00 0.00 0.00 24 1011.2
20260505034252 68 276 0.0 7.8 0.00 0.00 0.00 24 1011.1
20260505033651 68 264 2.6 7.8 0.00 0.00 0.00 24 1011.0
20260505033052 68 272 1.7 4.3 0.00 0.00 0.00 24 1010.9
20260505032451 68 261 2.6 8.7 0.00 0.00 0.00 24 1010.8
20260505031851 68 282 4.3 9.6 0.00 0.00 0.00 23 1010.8
20260505031251 68 285 5.2 10.4 0.00 0.00 0.00 23 1010.7
20260505030651 69 276 6.1 10.4 0.00 0.00 0.00 23 1010.7
20260505030052 69 280 3.5 11.3 0.00 0.00 0.00 23 1010.5
20260505025452 69 267 7.8 13.9 0.00 0.00 0.00 23 1010.5
20260505024851 69 270 9.6 13.0 0.00 0.00 0.00 23 1010.4
20260505024251 69 265 8.7 11.3 0.00 0.00 0.00 22 1010.4
20260505023650 69 300 5.2 11.3 0.00 0.00 0.00 22 1010.3
20260505023051 70 258 5.2 11.3 0.00 0.00 0.00 22 1010.3
20260505022450 70 266 7.0 11.3 0.00 0.00 0.00 21 1010.3
20260505021850 70 259 4.3 10.4 0.00 0.00 0.00 21 1010.3
20260505021251 70 274 3.5 10.4 0.00 0.00 0.00 20 1010.2
20260505020651 71 234 4.3 9.6 0.00 0.00 0.00 20 1010.1
20260505020050 71 278 5.2 8.7 0.00 0.00 0.00 20 1010.0
20260505015450 71 259 4.3 11.3 0.00 0.00 0.00 21 1010.0
20260505014850 71 300 0.9 4.3 0.00 0.00 0.00 21 1009.8
20260505014251 71 278 0.9 6.1 0.00 0.00 0.00 21 1009.9
20260505013650 72 253 3.5 7.8 0.00 0.00 0.00 20 1009.8
20260505013050 72 278 2.6 8.7 0.00 0.00 0.00 20 1009.6
20260505012450 72 232 5.2 12.2 0.00 0.00 0.00 20 1009.5
20260505011850 72 276 3.5 12.2 0.00 0.00 0.00 20 1009.5
20260505011250 72 271 3.5 11.3 0.00 0.00 0.00 20 1009.4
20260505010650 72 243 3.5 11.3 0.00 0.00 0.00 19 1009.5
20260505010050 73 236 3.5 8.7 0.00 0.00 0.00 19 1009.5
20260505005450 73 231 4.3 10.4 0.00 0.00 0.00 19 1009.5
20260505004850 73 274 4.3 12.2 0.00 0.00 0.00 19 1009.5
20260505004250 73 249 3.5 11.3 0.00 0.00 0.00 19 1009.4
20260505003650 73 230 5.2 9.6 0.00 0.00 0.00 18 1009.6
20260505003050 73 255 2.6 13.9 0.00 0.00 0.00 18 1009.6
20260505002450 73 216 2.6 10.4 0.00 0.00 0.00 18 1009.6
20260505001850 74 284 5.2 13.0 0.00 0.00 0.00 17 1009.6
20260505001250 74 245 7.8 13.0 0.00 0.00 0.00 17 1009.8
20260505000650 74 237 5.2 12.2 0.00 0.00 0.00 17 1009.7
20260505000050 74 275 6.1 13.0 0.00 0.00 0.00 16 1009.6
20260504235450 74 270 8.7 15.6 0.00 0.00 0.00 17 1009.6
20260504234850 74 267 7.8 15.6 0.00 0.00 0.00 17 1009.6
20260504234250 74 255 3.5 13.9 0.00 0.00 0.00 16 1009.7
20260504233650 74 230 8.7 13.9 0.00 0.00 0.00 16 1009.8
20260504233050 74 276 3.5 12.2 0.00 0.00 0.00 15 1009.8
20260504232449 74 268 3.5 9.6 0.00 0.00 0.00 15 1009.8
20260504231850 74 232 3.5 9.6 0.00 0.00 0.00 14 1009.8
20260504231249 74 251 2.6 13.9 0.00 0.00 0.00 14 1009.8
20260504230649 74 238 7.8 13.9 0.00 0.00 0.00 14 1009.9
20260504230050 74 238 3.5 13.0 0.00 0.00 0.00 14 1009.8
20260504225450 74 242 6.1 13.0 0.00 0.00 0.00 14 1009.8
20260504224849 74 232 8.7 14.8 0.00 0.00 0.00 14 1009.9
20260504224250 74 225 3.5 11.3 0.00 0.00 0.00 14 1009.9
20260504223649 74 226 7.0 13.9 0.00 0.00 0.00 14 1010.0
20260504223049 74 220 4.3 15.6 0.00 0.00 0.00 14 1010.0
20260504222449 74 224 7.0 13.0 0.00 0.00 0.00 14 1010.2
20260504221849 74 213 7.8 16.5 0.00 0.00 0.00 14 1010.3
20260504221250 74 234 10.4 16.5 0.00 0.00 0.00 14 1010.4
20260504220649 74 238 8.7 12.2 0.00 0.00 0.00 14 1010.3
20260504220049 75 222 4.3 13.0 0.00 0.00 0.00 14 1010.5
20260504215449 75 235 6.1 13.9 0.00 0.00 0.00 14 1010.5
20260504214849 75 248 7.8 13.9 0.00 0.00 0.00 15 1010.6
20260504214248 75 243 3.5 14.8 0.00 0.00 0.00 15 1010.7
20260504213649 74 224 1.7 13.0 0.00 0.00 0.00 15 1010.7
20260504213049 75 206 7.8 13.0 0.00 0.00 0.00 16 1010.9
20260504212449 75 212 5.2 12.2 0.00 0.00 0.00 16 1010.9
20260504211849 75 218 4.3 10.4 0.00 0.00 0.00 15 1011.0
20260504211248 75 249 3.5 9.6 0.00 0.00 0.00 15 1011.0
20260504210649 76 238 3.5 10.4 0.00 0.00 0.00 16 1011.2
20260504210049 75 243 1.7 6.1 0.00 0.00 0.00 17 1011.3
20260504205449 75 278 0.9 10.4 0.00 0.00 0.00 18 1011.5
20260504204850 75 330 0.9 11.3 0.00 0.00 0.00 18 1011.7
20260504204248 75 278 1.7 4.3 0.00 0.00 0.00 18 1011.8
20260504203649 74 201 0.0 0.9 0.00 0.00 0.00 19 1011.9
20260504203049 73 223 0.0 7.0 0.00 0.00 0.00 19 1012.3
20260504202448 73 231 0.0 7.0 0.00 0.00 0.00 19 1012.5
20260504201848 72 246 2.6 7.0 0.00 0.00 0.00 20 1012.6
20260504201249 72 277 1.7 8.7 0.00 0.00 0.00 19 1012.8
20260504200648 72 216 3.5 13.0 0.00 0.00 0.00 20 1012.8
20260504200048 72 237 0.9 10.4 0.00 0.00 0.00 20 1012.8
20260504195449 72 241 4.3 11.3 0.00 0.00 0.00 19 1013.1
20260504194849 72 236 5.2 11.3 0.00 0.00 0.00 19 1013.0
20260504194249 72 230 5.2 10.4 0.00 0.00 0.00 20 1013.1
20260504193648 72 225 0.9 8.7 0.00 0.00 0.00 20 1013.2
20260504193049 71 239 2.6 8.7 0.00 0.00 0.00 21 1013.3
20260504192449 71 222 3.5 13.9 0.00 0.00 0.00 20 1013.3
20260504191849 71 283 8.7 13.9 0.00 0.00 0.00 20 1013.4
20260504191248 71 221 4.3 7.8 0.00 0.00 0.00 21 1013.4
20260504190648 70 201 0.0 4.3 0.00 0.00 0.00 22 1013.5
20260504190049 70 189 0.9 6.1 0.00 0.00 0.00 22 1013.5
20260504185448 69 232 0.0 12.2 0.00 0.00 0.00 22 1013.9
20260504184848 69 218 5.2 12.2 0.00 0.00 0.00 21 1014.0
20260504184248 69 255 2.6 7.8 0.00 0.00 0.00 23 1014.2
20260504183648 69 243 0.9 6.1 0.00 0.00 0.00 23 1014.2
20260504183048 68 139 0.9 10.4 0.00 0.00 0.00 23 1014.2
20260504182448 68 261 5.2 10.4 0.00 0.00 0.00 24 1014.3
20260504181848 68 216 1.7 6.1 0.00 0.00 0.00 23 1014.4
20260504181248 68 220 2.6 10.4 0.00 0.00 0.00 23 1014.4
20260504180648 68 246 5.2 12.2 0.00 0.00 0.00 22 1014.5
20260504180048 69 232 4.3 10.4 0.00 0.00 0.00 21 1014.6
20260504175449 68 254 1.7 11.3 0.00 0.00 0.00 23 1014.6
20260504174848 68 210 2.6 11.3 0.00 0.00 0.00 23 1014.5
20260504174247 67 236 0.0 3.5 0.00 0.00 0.00 24 1014.6
20260504173647 67 220 0.0 8.7 0.00 0.00 0.00 24 1014.9
20260504173047 67 266 3.5 7.8 0.00 0.00 0.00 23 1015.0
20260504172447 67 226 0.9 8.7 0.00 0.00 0.00 23 1014.9
20260504171847 67 230 5.2 8.7 0.00 0.00 0.00 24 1015.0
20260504171247 67 219 1.7 5.2 0.00 0.00 0.00 25 1015.0
20260504170647 66 245 0.9 5.2 0.00 0.00 0.00 25 1014.9